#timestamp,LO_Frequency,Hit,StdDev 
1541556015.5,286046992.1,P
1541556035.3,286046990.3,P
1541556055.2,286046990.7,Y
1541556075.9,286046997.6,P
1541556095.7,286046997.3,N
1541556115.6,286046995.7,N
1541556135.4,286046994.2,Y
1541556155.3,286046997.2,P
1541556175.1,286046997.4,P
1541556176.0,286046997.4,P
1541556195.8,286046995.9,Y
1541556215.7,286046999.0,P
1541556235.5,286046999.2,N
1541556255.3,286046998.7,N
1541556275.2,286047000.6,N
1541556295.0,286046999.3,N
1541556295.9,286046999.3,N
1541556315.8,286046996.6,Y
1541556335.6,286046999.1,P
1541556355.4,286046999.5,P
1541556375.3,286046999.5,N
1541556395.1,286046998.9,Y
1541556415.9,286046998.4,P
1541556435.7,286046998.9,N
1541556455.5,286046999.5,N
1541556475.4,286046997.4,Y
1541556495.2,286046998.6,P
1541556515.0,286047000.9,P
1541556546.0,286047003.2,E
1541556555.9,286047002.5,N
1541556575.7,286047001.2,P
1541556595.6,286047001.0,N
1541556615.4,286047000.4,N
1541556635.2,286047001.3,N
1541556655.1,286046999.8,N
1541556656.0,286046999.8,N
1541556675.8,286046998.7,N
1541556695.7,286046996.5,Y
1541556715.5,286046994.3,P
1541556735.3,286046993.1,N
1541556755.2,286046991.6,N
1541556775.0,286046989.5,Y
1541556775.9,286046989.5,P
1541556795.7,286046993.6,N
1541556815.6,286046991.8,P
1541556835.4,286046990.9,Y
1541556855.3,286046994.9,P
1541556875.1,286046992.2,P
1541556876.0,286046992.2,P
1541556895.8,286046993.2,Y
1541556915.7,286046996.7,P
1541556935.5,286046994.9,N
1541556955.3,286046995.1,P
1541556975.2,286046997.8,N
1541556995.0,286046996.8,N
1541556995.9,286046996.8,N
1541557015.8,286046998.3,N
1541557035.6,286046996.7,N
1541557055.4,286046997.6,N
1541557075.3,286046997.4,N
1541557095.1,286046999.1,N
1541557115.8,286046998.0,N
1541557135.7,286046993.6,Y
1541557155.5,286046997.6,P
1541557175.4,286046995.1,P
1541557195.2,286046996.3,P
1541557215.0,286046993.7,Y
1541557215.9,286046993.7,P
1541557235.8,286046999.5,N
1541557255.6,286046999.6,N
1541557275.4,286046998.9,N
1541557295.3,286046999.1,N
1541557315.1,286046999.6,N
1541557335.9,286046997.1,N
1541557355.7,286046998.4,N
1541557375.5,286046999.4,N
1541557395.4,286046999.2,N
1541557415.2,286047002.7,N
1541557435.0,286047003.4,N
1541557435.9,286047003.4,N
1541557455.8,286047003.0,N
1541557475.6,286047003.9,N
1541557495.5,286047002.9,N
1541557515.3,286047008.9,Y
1541557535.1,286047008.2,P
1541557555.9,286047006.5,N
1541557575.7,286047003.7,N
1541557595.5,286047000.9,N
1541557615.4,286046996.5,N
1541557635.2,286046993.3,N
1541557655.0,286046992.3,N
1541557656.0,286046992.3,N
1541557675.8,286046989.3,N
1541557695.6,286046988.3,N
1541557715.5,286046988.4,N
1541557735.3,286046989.4,N
1541557755.1,286046987.4,N
1541557775.9,286046986.0,N
1541557795.7,286046991.3,N
1541557815.6,286046990.5,N
1541557835.4,286046989.1,N
1541557855.2,286046989.1,N
1541557875.1,286046985.5,N
1541557876.0,286046985.5,N
1541557895.8,286046984.0,N
1541557915.6,286046984.0,N
1541557935.5,286046985.1,N
1541557955.3,286046982.7,N
1541557975.2,286046980.5,N
1541557995.9,286046982.4,N
1541558015.7,286046984.8,N
1541558035.6,286046983.4,N
1541558055.4,286046983.6,N
1541558075.2,286046981.8,N
1541558095.1,286046981.7,N
1541558096.0,286046981.7,N
1541558115.8,286046982.0,Y
1541558135.7,286046990.1,P
1541558155.5,286046990.3,P
1541558175.3,286046988.8,P
1541558195.2,286046989.4,Y
1541558215.0,286046998.7,P
1541558215.9,286046998.7,N
1541558235.8,286047000.7,N
1541558255.6,286047000.4,N
1541558275.4,286047002.7,N
1541558295.3,286047004.2,N
1541558315.1,286047005.3,N
1541558316.0,286047005.3,N
1541558335.8,286047005.3,N
1541558355.7,286047006.0,N
1541558375.5,286047003.5,N
1541558395.3,286047003.1,N
1541558415.2,286047005.1,N
1541558435.0,286047004.8,N
1541558435.9,286047004.8,N
1541558455.8,286047003.3,N
1541558475.6,286047005.2,N
1541558495.4,286047009.2,N
1541558515.3,286047004.7,N
1541558535.1,286047006.1,N
1541558555.9,286047008.4,N
1541558575.7,286047011.4,N
1541558595.5,286047012.5,N
1541558615.4,286047012.5,N
1541558635.2,286047011.6,N
1541558655.0,286047013.8,N
1541558655.9,286047013.8,N
1541558675.8,286047011.9,N
1541558695.6,286047008.0,N
1541558715.5,286047007.5,N
1541558735.3,286047003.2,N
1541558755.1,286047003.1,N
1541558775.9,286047002.9,N
1541558795.7,286047004.1,N
1541558815.5,286047006.3,N
1541558835.4,286047008.5,N
1541558855.2,286047008.4,N
1541558875.1,286047009.0,N
1541558876.0,286047009.0,N
1541558895.8,286047008.4,N
1541558915.6,286047007.4,N
1541558935.5,286047002.9,N
1541558955.3,286047005.6,N
1541558975.1,286047003.0,N
1541558995.9,286047008.8,N
1541559015.7,286047005.0,N
1541559035.6,286047004.3,N
1541559055.4,286047001.7,N
1541559075.2,286047000.3,N
1541559095.1,286047001.2,N
1541559096.0,286047001.2,N
1541559115.8,286047002.0,N
1541559135.6,286047000.3,N
1541559155.5,286047006.0,N
1541559175.3,286047008.9,N
1541559195.1,286047004.5,N
1541559215.9,286047008.7,N
1541559235.7,286047006.7,N
1541559255.6,286047007.0,N
1541559275.4,286047003.4,N
1541559295.2,286047001.0,N
1541559315.1,286046999.0,N
1541559316.0,286046999.0,N
1541559335.8,286046997.1,N
1541559355.7,286046995.6,N
1541559375.5,286046995.6,N
1541559395.3,286046997.2,N
1541559415.2,286046999.4,N
1541559435.9,286046998.4,N
1541559455.7,286046997.2,N
1541559475.6,286046997.0,N
1541559495.4,286046995.3,N
1541559515.2,286046994.9,N
1541559535.1,286046996.7,N
1541559536.0,286046996.7,N
1541559555.8,286047000.8,N
1541559575.7,286046998.4,N
1541559595.5,286046997.4,N
